﻿測定場所 (Monitoring sites),日付 (Measurement date),時間 (Measurement time),線量率 最大値 (max) μGy/h,線量率 最小値 (min) μGy/h,線量率 平均値 (average) μGy/h,
八王子 (Hachioji),2023-04-16,23:01～24:00,0.0354,0.0309,0.0335,
八王子 (Hachioji),2023-04-16,22:01～23:00,0.0356,0.0313,0.0332,
八王子 (Hachioji),2023-04-16,21:01～22:00,0.0356,0.0306,0.0332,
八王子 (Hachioji),2023-04-16,20:01～21:00,0.0353,0.0306,0.0330,
八王子 (Hachioji),2023-04-16,19:01～20:00,0.0352,0.0314,0.0332,
八王子 (Hachioji),2023-04-16,18:01～19:00,0.0361,0.0306,0.0337,
八王子 (Hachioji),2023-04-16,17:01～18:00,0.0356,0.0314,0.0336,
八王子 (Hachioji),2023-04-16,16:01～17:00,0.0361,0.0311,0.0339,
八王子 (Hachioji),2023-04-16,15:01～16:00,0.0367,0.0316,0.0337,
八王子 (Hachioji),2023-04-16,14:01～15:00,0.0354,0.0319,0.0336,
八王子 (Hachioji),2023-04-16,13:01～14:00,0.0370,0.0314,0.0337,
八王子 (Hachioji),2023-04-16,12:01～13:00,0.0362,0.0314,0.0337,
八王子 (Hachioji),2023-04-16,11:01～12:00,0.0364,0.0308,0.0337,
八王子 (Hachioji),2023-04-16,10:01～11:00,0.0358,0.0306,0.0332,
八王子 (Hachioji),2023-04-16,09:01～10:00,0.0360,0.0308,0.0332,
八王子 (Hachioji),2023-04-16,08:01～09:00,0.0366,0.0308,0.0332,
八王子 (Hachioji),2023-04-16,07:01～08:00,0.0358,0.0309,0.0335,
八王子 (Hachioji),2023-04-16,06:01～07:00,0.0364,0.0304,0.0336,
八王子 (Hachioji),2023-04-16,05:01～06:00,0.0355,0.0308,0.0334,
八王子 (Hachioji),2023-04-16,04:01～05:00,0.0360,0.0311,0.0336,
八王子 (Hachioji),2023-04-16,03:01～04:00,0.0401,0.0328,0.0365,
八王子 (Hachioji),2023-04-16,02:01～03:00,0.0513,0.0381,0.0444,
八王子 (Hachioji),2023-04-16,01:01～02:00,0.0522,0.0415,0.0474,
八王子 (Hachioji),2023-04-16,00:01～01:00,0.0471,0.0294,0.0397,
八王子 (Hachioji),2023-04-15,23:01～24:00,0.0356,0.0311,0.0335,
八王子 (Hachioji),2023-04-15,22:01～23:00,0.0367,0.0322,0.0345,
八王子 (Hachioji),2023-04-15,21:01～22:00,0.0364,0.0311,0.0330,
八王子 (Hachioji),2023-04-15,20:01～21:00,0.0353,0.0302,0.0331,
八王子 (Hachioji),2023-04-15,19:01～20:00,0.0363,0.0324,0.0343,
八王子 (Hachioji),2023-04-15,18:01～19:00,0.0394,0.0325,0.0362,
八王子 (Hachioji),2023-04-15,17:01～18:00,0.0432,0.0346,0.0390,
八王子 (Hachioji),2023-04-15,16:01～17:00,0.0430,0.0376,0.0405,
八王子 (Hachioji),2023-04-15,15:01～16:00,0.0442,0.0377,0.0407,
八王子 (Hachioji),2023-04-15,14:01～15:00,0.0426,0.0374,0.0396,
八王子 (Hachioji),2023-04-15,13:01～14:00,0.0412,0.0362,0.0383,
八王子 (Hachioji),2023-04-15,12:01～13:00,0.0405,0.0356,0.0377,
八王子 (Hachioji),2023-04-15,11:01～12:00,0.0423,0.0364,0.0397,
八王子 (Hachioji),2023-04-15,10:01～11:00,0.0451,0.0387,0.0419,
八王子 (Hachioji),2023-04-15,09:01～10:00,0.0456,0.0398,0.0427,
八王子 (Hachioji),2023-04-15,08:01～09:00,0.0453,0.0398,0.0427,
八王子 (Hachioji),2023-04-15,07:01～08:00,0.0446,0.0400,0.0420,
八王子 (Hachioji),2023-04-15,06:01～07:00,0.0456,0.0403,0.0432,
八王子 (Hachioji),2023-04-15,05:01～06:00,0.0471,0.0412,0.0441,
八王子 (Hachioji),2023-04-15,04:01～05:00,0.0458,0.0381,0.0424,
八王子 (Hachioji),2023-04-15,03:01～04:00,0.0409,0.0361,0.0386,
八王子 (Hachioji),2023-04-15,02:01～03:00,0.0423,0.0321,0.0371,
八王子 (Hachioji),2023-04-15,01:01～02:00,0.0360,0.0318,0.0339,
八王子 (Hachioji),2023-04-15,00:01～01:00,0.0378,0.0324,0.0343,
八王子 (Hachioji),2023-04-14,23:01～24:00,0.0369,0.0325,0.0347,
八王子 (Hachioji),2023-04-14,22:01～23:00,0.0366,0.0319,0.0346,
八王子 (Hachioji),2023-04-14,21:01～22:00,0.0363,0.0312,0.0339,
八王子 (Hachioji),2023-04-14,20:01～21:00,0.0358,0.0316,0.0339,
八王子 (Hachioji),2023-04-14,19:01～20:00,0.0364,0.0318,0.0343,
八王子 (Hachioji),2023-04-14,18:01～19:00,0.0367,0.0304,0.0341,
八王子 (Hachioji),2023-04-14,17:01～18:00,0.0365,0.0313,0.0341,
八王子 (Hachioji),2023-04-14,16:01～17:00,0.0374,0.0320,0.0346,
八王子 (Hachioji),2023-04-14,15:01～16:00,0.0363,0.0326,0.0345,
八王子 (Hachioji),2023-04-14,14:01～15:00,0.0360,0.0314,0.0342,
八王子 (Hachioji),2023-04-14,13:01～14:00,0.0370,0.0325,0.0345,
八王子 (Hachioji),2023-04-14,12:01～13:00,0.0363,0.0324,0.0343,
八王子 (Hachioji),2023-04-14,11:01～12:00,0.0363,0.0318,0.0342,
八王子 (Hachioji),2023-04-14,10:01～11:00,0.0364,0.0315,0.0342,
八王子 (Hachioji),2023-04-14,09:01～10:00,0.0365,0.0314,0.0340,
八王子 (Hachioji),2023-04-14,08:01～09:00,0.0369,0.0308,0.0339,
八王子 (Hachioji),2023-04-14,07:01～08:00,0.0377,0.0318,0.0345,
八王子 (Hachioji),2023-04-14,06:01～07:00,0.0367,0.0322,0.0346,
八王子 (Hachioji),2023-04-14,05:01～06:00,0.0370,0.0322,0.0346,
八王子 (Hachioji),2023-04-14,04:01～05:00,0.0361,0.0323,0.0343,
八王子 (Hachioji),2023-04-14,03:01～04:00,0.0359,0.0318,0.0340,
八王子 (Hachioji),2023-04-14,02:01～03:00,0.0362,0.0312,0.0339,
八王子 (Hachioji),2023-04-14,01:01～02:00,0.0364,0.0318,0.0341,
八王子 (Hachioji),2023-04-14,00:01～01:00,0.0355,0.0321,0.0338,
八王子 (Hachioji),2023-04-13,23:01～24:00,0.0355,0.0315,0.0335,
八王子 (Hachioji),2023-04-13,22:01～23:00,0.0360,0.0307,0.0336,
八王子 (Hachioji),2023-04-13,21:01～22:00,0.0362,0.0311,0.0337,
八王子 (Hachioji),2023-04-13,20:01～21:00,0.0363,0.0302,0.0334,
八王子 (Hachioji),2023-04-13,19:01～20:00,0.0359,0.0311,0.0337,
八王子 (Hachioji),2023-04-13,18:01～19:00,0.0373,0.0308,0.0337,
八王子 (Hachioji),2023-04-13,17:01～18:00,0.0360,0.0318,0.0339,
八王子 (Hachioji),2023-04-13,16:01～17:00,0.0363,0.0316,0.0337,
八王子 (Hachioji),2023-04-13,15:01～16:00,0.0374,0.0317,0.0340,
八王子 (Hachioji),2023-04-13,14:01～15:00,0.0366,0.0308,0.0342,
八王子 (Hachioji),2023-04-13,13:01～14:00,0.0361,0.0318,0.0342,
八王子 (Hachioji),2023-04-13,12:01～13:00,0.0375,0.0318,0.0341,
八王子 (Hachioji),2023-04-13,11:01～12:00,0.0367,0.0323,0.0344,
八王子 (Hachioji),2023-04-13,10:01～11:00,0.0373,0.0323,0.0341,
八王子 (Hachioji),2023-04-13,09:01～10:00,0.0368,0.0319,0.0339,
八王子 (Hachioji),2023-04-13,08:01～09:00,0.0358,0.0318,0.0337,
八王子 (Hachioji),2023-04-13,07:01～08:00,0.0358,0.0322,0.0340,
八王子 (Hachioji),2023-04-13,06:01～07:00,0.0367,0.0314,0.0344,
八王子 (Hachioji),2023-04-13,05:01～06:00,0.0367,0.0312,0.0338,
八王子 (Hachioji),2023-04-13,04:01～05:00,0.0367,0.0321,0.0342,
八王子 (Hachioji),2023-04-13,03:01～04:00,0.0365,0.0319,0.0341,
八王子 (Hachioji),2023-04-13,02:01～03:00,0.0355,0.0314,0.0339,
八王子 (Hachioji),2023-04-13,01:01～02:00,0.0377,0.0311,0.0339,
八王子 (Hachioji),2023-04-13,00:01～01:00,0.0371,0.0322,0.0340,
八王子 (Hachioji),2023-04-12,23:01～24:00,0.0371,0.0310,0.0341,
八王子 (Hachioji),2023-04-12,22:01～23:00,0.0370,0.0322,0.0344,
八王子 (Hachioji),2023-04-12,21:01～22:00,0.0363,0.0325,0.0340,
八王子 (Hachioji),2023-04-12,20:01～21:00,0.0367,0.0314,0.0341,
八王子 (Hachioji),2023-04-12,19:01～20:00,0.0368,0.0321,0.0344,
八王子 (Hachioji),2023-04-12,18:01～19:00,0.0367,0.0314,0.0342,
八王子 (Hachioji),2023-04-12,17:01～18:00,0.0370,0.0328,0.0343,
八王子 (Hachioji),2023-04-12,16:01～17:00,0.0370,0.0324,0.0342,
八王子 (Hachioji),2023-04-12,15:01～16:00,0.0361,0.0318,0.0339,
八王子 (Hachioji),2023-04-12,14:01～15:00,0.0358,0.0311,0.0340,
八王子 (Hachioji),2023-04-12,13:01～14:00,0.0374,0.0317,0.0340,
八王子 (Hachioji),2023-04-12,12:01～13:00,0.0369,0.0322,0.0345,
八王子 (Hachioji),2023-04-12,11:01～12:00,0.0370,0.0319,0.0343,
八王子 (Hachioji),2023-04-12,10:01～11:00,0.0368,0.0318,0.0341,
八王子 (Hachioji),2023-04-12,09:01～10:00,0.0368,0.0318,0.0342,
八王子 (Hachioji),2023-04-12,08:01～09:00,0.0358,0.0317,0.0339,
八王子 (Hachioji),2023-04-12,07:01～08:00,0.0368,0.0309,0.0339,
八王子 (Hachioji),2023-04-12,06:01～07:00,0.0359,0.0311,0.0334,
八王子 (Hachioji),2023-04-12,05:01～06:00,0.0362,0.0315,0.0334,
八王子 (Hachioji),2023-04-12,04:01～05:00,0.0361,0.0305,0.0332,
八王子 (Hachioji),2023-04-12,03:01～04:00,0.0367,0.0311,0.0334,
八王子 (Hachioji),2023-04-12,02:01～03:00,0.0363,0.0310,0.0334,
八王子 (Hachioji),2023-04-12,01:01～02:00,0.0347,0.0314,0.0331,
八王子 (Hachioji),2023-04-12,00:01～01:00,0.0364,0.0316,0.0333,
八王子 (Hachioji),2023-04-11,23:01～24:00,0.0353,0.0312,0.0332,
八王子 (Hachioji),2023-04-11,22:01～23:00,0.0355,0.0304,0.0332,
八王子 (Hachioji),2023-04-11,21:01～22:00,0.0355,0.0307,0.0331,
八王子 (Hachioji),2023-04-11,20:01～21:00,0.0360,0.0311,0.0332,
八王子 (Hachioji),2023-04-11,19:01～20:00,0.0362,0.0315,0.0335,
八王子 (Hachioji),2023-04-11,18:01～19:00,0.0367,0.0315,0.0337,
八王子 (Hachioji),2023-04-11,17:01～18:00,0.0364,0.0319,0.0338,
八王子 (Hachioji),2023-04-11,16:01～17:00,0.0359,0.0307,0.0341,
八王子 (Hachioji),2023-04-11,15:01～16:00,0.0360,0.0322,0.0342,
八王子 (Hachioji),2023-04-11,14:01～15:00,0.0367,0.0323,0.0343,
八王子 (Hachioji),2023-04-11,13:01～14:00,0.0362,0.0322,0.0342,
八王子 (Hachioji),2023-04-11,12:01～13:00,0.0364,0.0315,0.0340,
八王子 (Hachioji),2023-04-11,11:01～12:00,0.0360,0.0318,0.0340,
八王子 (Hachioji),2023-04-11,10:01～11:00,0.0361,0.0315,0.0342,
八王子 (Hachioji),2023-04-11,09:01～10:00,0.0359,0.0315,0.0341,
八王子 (Hachioji),2023-04-11,08:01～09:00,0.0363,0.0316,0.0341,
八王子 (Hachioji),2023-04-11,07:01～08:00,0.0370,0.0311,0.0343,
八王子 (Hachioji),2023-04-11,06:01～07:00,0.0363,0.0318,0.0344,
八王子 (Hachioji),2023-04-11,05:01～06:00,0.0376,0.0316,0.0339,
八王子 (Hachioji),2023-04-11,04:01～05:00,0.0364,0.0319,0.0342,
八王子 (Hachioji),2023-04-11,03:01～04:00,0.0363,0.0316,0.0342,
八王子 (Hachioji),2023-04-11,02:01～03:00,0.0353,0.0315,0.0335,
八王子 (Hachioji),2023-04-11,01:01～02:00,0.0357,0.0311,0.0336,
八王子 (Hachioji),2023-04-11,00:01～01:00,0.0358,0.0315,0.0337,
八王子 (Hachioji),2023-04-10,23:01～24:00,0.0357,0.0311,0.0335,
八王子 (Hachioji),2023-04-10,22:01～23:00,0.0360,0.0315,0.0337,
八王子 (Hachioji),2023-04-10,21:01～22:00,0.0363,0.0309,0.0335,
八王子 (Hachioji),2023-04-10,20:01～21:00,0.0355,0.0317,0.0337,
八王子 (Hachioji),2023-04-10,19:01～20:00,0.0359,0.0312,0.0337,
八王子 (Hachioji),2023-04-10,18:01～19:00,0.0355,0.0310,0.0336,
八王子 (Hachioji),2023-04-10,17:01～18:00,0.0362,0.0310,0.0337,
八王子 (Hachioji),2023-04-10,16:01～17:00,0.0362,0.0318,0.0342,
八王子 (Hachioji),2023-04-10,15:01～16:00,0.0362,0.0315,0.0341,
八王子 (Hachioji),2023-04-10,14:01～15:00,0.0368,0.0315,0.0344,
八王子 (Hachioji),2023-04-10,13:01～14:00,0.0374,0.0308,0.0340,
八王子 (Hachioji),2023-04-10,12:01～13:00,0.0374,0.0319,0.0341,
八王子 (Hachioji),2023-04-10,11:01～12:00,0.0370,0.0306,0.0338,
八王子 (Hachioji),2023-04-10,10:01～11:00,0.0370,0.0318,0.0341,
八王子 (Hachioji),2023-04-10,09:01～10:00,0.0368,0.0322,0.0342,
八王子 (Hachioji),2023-04-10,08:01～09:00,0.0374,0.0325,0.0349,
八王子 (Hachioji),2023-04-10,07:01～08:00,0.0371,0.0318,0.0351,
八王子 (Hachioji),2023-04-10,06:01～07:00,0.0379,0.0328,0.0350,
八王子 (Hachioji),2023-04-10,05:01～06:00,0.0381,0.0326,0.0353,
八王子 (Hachioji),2023-04-10,04:01～05:00,0.0381,0.0327,0.0349,
八王子 (Hachioji),2023-04-10,03:01～04:00,0.0371,0.0319,0.0349,
八王子 (Hachioji),2023-04-10,02:01～03:00,0.0363,0.0324,0.0345,
八王子 (Hachioji),2023-04-10,01:01～02:00,0.0379,0.0319,0.0343,
八王子 (Hachioji),2023-04-10,00:01～01:00,0.0359,0.0324,0.0342,
